TimeBST,TemperatureF,Dew PointF,Humidity,Sea Level PressureIn,VisibilityMPH,Wind Direction,Wind SpeedMPH,Gust SpeedMPH,PrecipitationIn,Events,Conditions,WindDirDegrees,DateUTC
12:20 AM,57.2,51.8,82,30.27,-9999.0,West,6.9,-,N/A,,Clear,270,2013-07-04 23:20:00
12:50 AM,57,51,74,30.29,10,West,4.6,,,,,260,2013-07-04 23:50:00
12:50 AM,55.4,51.8,88,30.27,-9999.0,West,5.8,-,N/A,,Clear,270,2013-07-04 23:50:00
1:20 AM,55.4,51.8,88,30.30,-9999.0,West,6.9,-,N/A,,Clear,280,2013-07-05 00:20:00
1:50 AM,55.4,53.6,94,30.30,-9999.0,West,5.8,-,N/A,,Clear,280,2013-07-05 00:50:00
2:20 AM,55.4,51.8,88,30.30,-9999.0,West,4.6,-,N/A,,Clear,260,2013-07-05 01:20:00
2:50 AM,53.6,51.8,94,30.30,6.2,West,3.5,-,N/A,,Unknown,280,2013-07-05 01:50:00
3:20 AM,53.6,51.8,94,30.30,6.2,West,4.6,-,N/A,,Unknown,270,2013-07-05 02:20:00
3:50 AM,54,51,86,30.32,8,West,3.5,,,,,280,2013-07-05 02:50:00
3:50 AM,53.6,51.8,94,30.30,6.2,West,5.8,-,N/A,,Unknown,280,2013-07-05 02:50:00
4:20 AM,51.8,51.8,100,30.33,-9999.0,West,3.5,-,N/A,,Clear,270,2013-07-05 03:20:00
4:50 AM,53.6,51.8,94,30.33,5.6,Variable,3.5,-,N/A,,Partly Cloudy,0,2013-07-05 03:50:00
5:20 AM,53.6,51.8,94,30.33,6.2,NW,3.5,-,N/A,,Partly Cloudy,320,2013-07-05 04:20:00
5:50 AM,53.6,51.8,94,30.36,6.2,NW,2.3,-,N/A,,Partly Cloudy,310,2013-07-05 04:50:00
6:20 AM,53.6,53.6,100,30.36,-9999.0,WNW,3.5,-,N/A,,Clear,300,2013-07-05 05:20:00
6:50 AM,56,52,81,30.38,9,NW,3.5,,,,,310,2013-07-05 05:50:00
6:50 AM,55.4,53.6,94,30.36,-9999.0,WNW,2.3,-,N/A,,Clear,290,2013-07-05 05:50:00
7:20 AM,57.2,53.6,88,30.36,-9999.0,Variable,2.3,-,N/A,,Clear,0,2013-07-05 06:20:00
7:50 AM,60.8,53.6,77,30.39,-9999.0,Variable,2.3,-,N/A,,Clear,0,2013-07-05 06:50:00
8:20 AM,62.6,53.6,72,30.39,6.2,Variable,3.5,-,N/A,,Partly Cloudy,0,2013-07-05 07:20:00
8:50 AM,64.4,53.6,68,30.39,6.2,Variable,3.5,-,N/A,,Partly Cloudy,0,2013-07-05 07:50:00
9:20 AM,66.2,53.6,64,30.39,-9999.0,ENE,4.6,-,N/A,,Clear,60,2013-07-05 08:20:00
9:50 AM,68,52,46,30.40,13,NE,5.8,,,,,50,2013-07-05 08:50:00
9:50 AM,68.0,53.6,60,30.39,-9999.0,NE,4.6,-,N/A,,Clear,50,2013-07-05 08:50:00
10:20 AM,69.8,53.6,56,30.39,-9999.0,Variable,3.5,-,N/A,,Clear,0,2013-07-05 09:20:00
10:50 AM,71.6,53.6,53,30.42,-9999.0,Variable,3.5,-,N/A,,Clear,0,2013-07-05 09:50:00
11:20 AM,71.6,53.6,53,30.42,6.2,Variable,3.5,-,N/A,,Partly Cloudy,0,2013-07-05 10:20:00
11:50 AM,71.6,53.6,53,30.42,6.2,Variable,4.6,-,N/A,,Partly Cloudy,0,2013-07-05 10:50:00
12:20 PM,73.4,53.6,50,30.42,6.2,Variable,3.5,-,N/A,,Partly Cloudy,0,2013-07-05 11:20:00
12:50 PM,74,51,33,30.40,19,NNE,4.6,,,,,20,2013-07-05 11:50:00
12:50 PM,73.4,51.8,47,30.42,6.2,NNE,4.6,-,N/A,,Partly Cloudy,30,2013-07-05 11:50:00
1:20 PM,73.4,51.8,47,30.39,6.2,East,5.8,-,N/A,,Partly Cloudy,100,2013-07-05 12:20:00
1:50 PM,75.2,50.0,41,30.39,6.2,Variable,4.6,-,N/A,,Partly Cloudy,0,2013-07-05 12:50:00
2:20 PM,75.2,50.0,41,30.39,-9999.0,ENE,4.6,-,N/A,,Clear,70,2013-07-05 13:20:00
2:50 PM,77.0,50.0,39,30.39,-9999.0,Variable,2.3,-,N/A,,Clear,0,2013-07-05 13:50:00
3:20 PM,77.0,50.0,39,30.39,-9999.0,South,4.6,-,N/A,,Clear,170,2013-07-05 14:20:00
3:50 PM,78,50,27,30.39,15,NE,5.8,,,,,50,2013-07-05 14:50:00
3:50 PM,78.8,50.0,36,30.39,-9999.0,Variable,5.8,-,N/A,,Clear,0,2013-07-05 14:50:00
4:20 PM,77.0,50.0,39,30.39,-9999.0,SSE,5.8,-,N/A,,Clear,160,2013-07-05 15:20:00
4:50 PM,78.8,50.0,36,30.39,-9999.0,ESE,8.1,-,N/A,,Clear,110,2013-07-05 15:50:00
5:20 PM,78.8,51.8,39,30.36,-9999.0,SE,5.8,-,N/A,,Clear,130,2013-07-05 16:20:00
5:50 PM,77.0,50.0,39,30.36,-9999.0,ESE,6.9,-,N/A,,Clear,120,2013-07-05 16:50:00
6:20 PM,77.0,51.8,41,30.36,-9999.0,Variable,4.6,-,N/A,,Clear,0,2013-07-05 17:20:00
6:50 PM,77,52,31,30.38,16,ESE,9.2,,,,,120,2013-07-05 17:50:00
6:50 PM,77.0,53.6,44,30.36,-9999.0,East,6.9,-,N/A,,Clear,90,2013-07-05 17:50:00
7:20 PM,75.2,53.6,47,30.39,-9999.0,SE,9.2,-,N/A,,Clear,140,2013-07-05 18:20:00
7:50 PM,73.4,59.0,61,30.39,-9999.0,South,11.5,-,N/A,,Clear,190,2013-07-05 18:50:00
8:20 PM,71.6,59.0,64,30.39,-9999.0,South,11.5,-,N/A,,Clear,190,2013-07-05 19:20:00
8:50 PM,69.8,59.0,68,30.39,-9999.0,South,10.4,-,N/A,,Clear,190,2013-07-05 19:50:00
9:20 PM,68.0,57.2,68,30.42,-9999.0,South,9.2,-,N/A,,Clear,190,2013-07-05 20:20:00
9:50 PM,67,56,59,30.42,12,SSW,9.2,,,,,200,2013-07-05 20:50:00
9:50 PM,66.2,57.2,73,30.42,-9999.0,SSW,9.2,-,N/A,,Clear,200,2013-07-05 20:50:00
10:20 PM,66.2,57.2,73,30.42,-9999.0,SSW,6.9,-,N/A,,Clear,210,2013-07-05 21:20:00
10:50 PM,64.4,57.2,77,30.42,-9999.0,SSW,5.8,-,N/A,,Clear,200,2013-07-05 21:50:00
11:20 PM,64.4,55.4,73,30.42,-9999.0,Variable,3.5,-,N/A,,Clear,0,2013-07-05 22:20:00
11:50 PM,62.6,55.4,77,30.42,-9999.0,Variable,2.3,-,N/A,,Clear,0,2013-07-05 22:50:00